Tracking 30061 objects as of 9-Dec-2024
HD Live streaming from Space Station
objects crossing your sky now

STARLINK-31282

Track STARLINK-31282 now!
10-day predictions
STARLINK-31282 is classified as:


NORAD ID: 59307
Int'l Code: 2024-056M
Perigee: 450.2 km
Apogee: 452.2 km
Inclination: 43.0 °
Period: 93.5 minutes
Semi major axis: 6822 km
RCS: Unknown
Launch date: March 24, 2024
Source: United States (US)
Launch site: AIR FORCE EASTERN TEST RANGE (AFETR)
Your satellite tracking list
Your tracking list is empty




NASA's NSSDC Master Catalog

Two Line Element Set (TLE):
1 59307U 24056M   24343.28581973  .00001900  00000-0  52742-4 0  9994
2 59307  43.0003 303.7871 0001423 286.5005  73.5695 15.40693701 41175
Source of the keplerian elements: AFSPC